Theta_e
306 297 292 291 295 296 296 297 298 296 295 294 295 295 291 292 293 294 295 297 297 294 292 293 293 294 295 297 298 299 299 299 298 298 300 301 301 301 301 301 302 303 305 306 308 309 309 310 310 310 311 311 310 310 310 310 310 310 310 309 309 310 312 310 310 309 309 309 309 309 309 308 306 306 305 306 306 306 306 309 312 313 314 314 314 314
305 296 295 297 297 298 298 297 297 296 294 294 294 294 291 295 290 296 296 297 298 294 291 293 292 294 296 297 298 299 299 299 300 300 300 300 301 302 302 302 302 303 306 308 307 308 308 308 309 309 310 309 308 308 309 309 309 310 310 309 309 310 310 310 310 309 310 311 311 310 310 307 305 303 305 304 304 304 306 306 307 309 313 314 313 313
294 292 296 299 299 299 298 297 296 294 296 295 293 292 292 291 295 297 296 297 297 294 290 293 292 293 296 297 299 299 299 300 301 301 300 300 300 301 302 302 303 303 304 306 306 307 307 307 308 308 308 309 309 308 308 309 309 309 309 309 309 309 309 309 310 310 310 312 311 311 307 306 302 301 304 302 302 303 304 304 303 306 310 313 313 313
291 293 298 300 299 296 296 295 296 297 297 294 292 290 288 295 292 288 296 296 297 294 291 292 292 293 296 298 299 300 300 300 301 302 302 302 302 302 302 301 303 303 304 306 305 306 306 307 307 307 307 308 308 307 307 308 308 309 308 309 308 308 308 308 310 309 311 310 307 306 306 304 302 299 300 301 301 301 302 302 303 303 305 309 311 312
293 298 299 299 299 297 295 296 294 291 289 294 296 293 292 294 295 292 292 297 297 297 297 294 293 293 296 296 297 300 301 300 301 301 302 303 304 304 304 305 305 303 304 306 305 305 305 305 306 306 307 307 307 307 307 307 308 309 308 308 308 308 307 308 309 310 307 302 301 301 300 300 299 299 299 299 299 300 300 300 302 303 302 306 308 309
296 299 302 297 299 297 297 292 294 294 288 292 295 295 294 296 293 295 296 295 290 288 295 295 283 283 293 295 296 298 299 298 299 299 301 301 302 302 303 304 304 306 306 306 306 306 305 305 305 305 306 306 306 306 307 307 308 307 307 308 308 307 307 308 308 307 304 304 302 301 301 300 300 298 297 299 300 299 298 299 300 300 302 303 305 306
295 298 301 298 297 296 297 295 296 297 290 289 291 298 299 298 295 296 294 292 283 281 293 295 282 281 290 291 294 297 297 297 299 299 301 301 302 301 303 304 304 305 305 305 306 305 304 304 304 305 306 306 306 306 307 307 307 307 307 307 308 307 306 308 308 305 305 304 304 304 304 305 304 302 300 303 303 301 301 301 298 298 299 302 303 302
296 297 298 299 298 296 295 291 297 296 290 287 296 299 298 296 295 295 295 294 290 293 295 296 291 283 285 288 294 296 296 296 296 298 299 301 301 301 302 304 304 304 304 305 305 305 304 304 304 305 306 306 307 306 307 307 308 307 307 307 307 306 306 308 306 304 305 305 304 305 305 305 305 304 301 302 302 302 301 299 298 297 296 297 299 300
297 295 297 296 296 293 292 297 298 298 293 294 295 300 297 297 298 295 293 290 290 287 284 289 292 283 283 289 294 295 293 293 295 296 297 299 299 300 302 304 304 305 306 306 305 303 303 303 304 304 305 306 307 307 307 307 307 307 307 307 307 306 306 305 303 303 304 305 305 305 306 304 305 305 304 303 301 299 298 297 296 296 295 295 297 298
298 298 299 300 294 292 296 294 298 299 292 295 299 299 298 298 296 296 290 289 287 284 282 288 292 282 284 290 290 292 292 292 294 296 297 298 299 304 303 304 304 304 302 302 303 303 304 304 304 304 305 306 306 307 307 306 307 306 306 306 305 304 305 302 301 303 304 304 305 305 306 305 305 306 303 301 299 297 297 295 294 294 294 294 294 295
297 298 297 299 296 299 294 295 296 297 297 299 299 297 295 293 292 290 290 286 284 280 282 291 292 288 280 289 289 290 293 294 295 295 296 300 302 304 305 305 303 303 302 301 301 302 302 302 303 303 304 305 305 306 306 306 306 306 306 304 304 304 303 301 301 302 303 304 305 306 306 306 306 305 301 299 298 297 297 296 294 293 293 293 292 292
298 297 297 298 298 298 298 295 298 299 299 299 294 291 292 289 288 286 285 286 280 279 285 292 292 289 278 283 293 294 296 295 295 294 295 298 299 303 305 303 301 301 300 300 300 300 300 300 301 301 302 304 305 305 305 305 305 305 305 304 304 303 301 301 301 302 302 303 304 305 306 307 306 303 300 299 298 297 297 296 294 293 293 292 292 292
292 293 296 296 298 299 296 293 293 296 297 297 292 290 283 281 282 280 283 280 280 278 282 287 291 287 285 287 292 295 295 297 297 299 299 299 299 300 304 301 299 299 299 299 299 299 299 299 299 300 300 302 303 304 304 304 304 304 304 304 303 302 301 301 301 302 302 302 303 304 306 307 303 302 301 300 299 298 298 297 295 293 292 292 291 291
289 294 295 295 295 297 299 289 287 285 291 293 289 285 281 278 277 273 277 282 281 282 285 285 287 284 288 289 295 296 297 297 298 300 301 302 300 299 300 301 300 299 299 300 300 299 299 299 299 300 300 302 303 303 303 303 303 304 304 303 303 303 301 300 301 302 302 302 303 304 305 306 301 301 301 301 300 299 299 299 297 295 294 292 292 291
281 282 291 293 289 297 297 295 293 289 291 292 294 291 284 281 277 273 277 275 277 280 284 285 281 280 280 288 294 297 299 297 298 299 299 301 301 301 301 300 301 299 299 300 300 300 300 300 300 300 301 301 302 303 303 303 303 303 303 302 301 302 300 299 300 301 302 302 302 303 304 305 300 300 300 300 301 300 299 299 298 296 295 293 292 291
286 285 294 298 296 297 295 300 301 295 290 291 294 296 287 284 287 278 281 282 279 279 279 280 281 283 287 295 295 297 298 296 298 298 298 300 300 300 300 302 300 299 300 301 299 300 299 300 299 300 300 300 302 302 302 302 302 303 302 302 301 301 299 298 299 300 301 301 302 302 302 303 301 299 299 299 299 299 299 298 297 296 295 293 291 290
286 284 293 297 298 295 294 299 300 297 283 289 291 285 288 294 291 284 282 282 280 279 279 282 284 288 290 294 295 296 297 297 296 296 297 298 299 300 299 300 300 302 300 300 300 299 299 298 299 300 300 300 302 302 302 302 302 302 302 301 300 300 299 298 299 300 301 301 301 301 301 301 300 299 299 299 299 299 299 297 296 296 294 293 291 291
285 287 290 293 291 294 294 295 298 296 299 292 283 289 295 296 293 286 279 281 280 277 279 280 281 283 282 283 292 292 292 294 294 296 298 299 299 298 299 299 300 301 303 302 301 300 300 299 299 299 300 300 302 302 302 302 302 302 302 301 301 300 299 299 299 299 300 300 299 299 299 300 300 299 299 300 299 299 298 297 297 296 294 292 291 291
294 283 287 290 291 293 296 296 295 297 297 293 290 298 290 281 281 284 281 275 273 273 276 280 282 284 286 287 289 290 291 293 295 296 297 297 297 298 299 300 300 302 304 301 300 299 298 298 298 299 299 300 301 302 302 302 302 301 301 301 301 301 300 300 300 299 299 299 300 299 298 299 299 299 299 299 299 298 297 296 296 295 293 292 291 289
292 284 285 288 291 294 294 292 285 287 295 298 297 292 296 287 284 282 282 281 280 274 275 278 280 282 289 288 291 292 294 295 296 295 295 296 297 299 299 300 302 302 302 301 299 298 299 298 298 299 299 300 300 301 302 301 301 301 301 300 301 301 301 300 299 298 298 299 299 299 299 299 299 298 298 298 297 297 297 296 295 294 292 291 290 288
287 288 281 285 291 292 284 289 287 289 287 285 286 284 289 286 289 286 286 283 279 277 276 276 278 283 289 294 294 295 296 297 296 296 297 297 298 299 300 303 303 303 302 300 299 298 298 298 297 297 298 299 298 299 301 301 301 300 300 300 300 300 300 299 298 299 299 299 299 299 298 298 298 297 297 296 296 296 296 296 294 293 291 289 288 287
286 283 282 284 284 284 287 293 294 294 293 291 289 287 290 286 283 280 279 288 284 282 277 278 278 285 294 297 296 295 298 298 296 297 298 298 299 299 302 302 302 301 301 300 299 298 297 296 296 295 295 295 296 298 299 300 300 299 299 300 300 300 300 299 298 299 299 298 299 299 298 297 297 296 296 295 294 294 293 293 292 290 288 288 286 286
292 288 284 281 284 287 291 294 295 294 295 295 291 289 292 289 286 282 277 280 285 283 284 281 278 284 293 295 295 295 295 296 298 297 300 300 299 302 303 301 301 301 300 299 298 297 296 295 295 295 295 296 297 299 298 299 300 300 299 299 299 299 299 300 299 298 298 298 298 298 296 294 294 294 294 293 292 291 291 291 290 289 288 286 285 285
295 285 283 283 289 292 291 294 294 294 295 292 292 290 290 288 289 286 283 282 282 281 282 281 278 284 294 292 293 290 291 293 295 296 299 299 300 301 301 300 300 299 299 297 295 296 296 293 293 293 294 296 297 298 299 299 299 299 299 299 299 298 299 299 298 297 297 297 296 296 294 292 292 292 292 292 291 290 290 290 289 288 287 286 285 285
286 285 285 281 282 283 286 289 289 291 291 286 286 291 292 292 292 290 287 285 283 284 285 282 278 284 295 292 294 294 294 297 297 296 298 299 299 302 301 300 299 299 297 296 295 295 294 292 293 295 295 296 296 298 299 299 299 299 299 298 298 298 298 299 297 296 295 295 295 294 294 292 291 291 291 291 290 290 289 289 288 288 287 286 285 285
290 288 286 280 278 276 276 278 279 281 285 286 286 289 293 292 292 289 285 284 282 285 285 282 283 289 292 292 294 292 292 295 294 296 297 298 301 302 302 300 299 299 298 296 295 294 294 294 294 294 294 295 296 297 298 298 299 299 299 298 298 298 298 298 295 294 293 294 294 293 293 293 291 291 291 291 290 289 288 288 287 287 287 287 286 284
287 289 289 286 284 283 284 285 289 290 285 284 286 290 291 293 294 292 286 284 283 286 282 285 287 288 290 291 293 292 291 294 294 295 295 297 296 296 298 300 300 299 298 298 297 296 293 291 293 294 294 295 295 295 297 298 298 298 298 297 297 297 297 296 295 293 293 293 293 292 292 292 291 291 291 290 289 288 287 287 286 286 286 286 286 284
286 287 289 289 288 289 290 291 292 291 288 288 288 288 291 291 291 290 287 286 290 283 282 288 289 287 290 292 292 293 293 292 293 295 296 294 295 299 299 298 298 298 298 298 296 296 296 295 294 293 293 293 294 294 295 297 297 298 297 297 296 295 295 296 295 293 292 292 292 292 292 292 291 291 291 290 289 288 287 287 287 286 286 285 284 285
288 287 290 290 289 291 291 290 293 292 291 290 289 289 289 291 290 288 289 291 290 285 284 289 289 288 291 293 293 292 295 296 295 296 297 298 297 297 298 299 299 298 297 296 297 297 296 296 296 295 293 293 292 293 293 294 295 295 295 295 295 295 295 295 294 293 292 292 292 293 292 292 291 291 290 290 289 288 287 287 286 286 285 285 285 284
290 287 289 291 289 290 291 291 292 291 290 290 290 290 291 290 290 291 290 292 291 289 291 291 291 290 293 295 296 295 298 299 299 300 300 299 299 298 298 298 298 298 297 298 298 298 298 298 297 296 294 292 292 293 293 293 294 295 296 296 295 295 295 294 294 293 292 292 292 293 292 291 290 290 290 289 288 288 287 287 286 285 285 285 285 283
291 287 292 288 286 287 289 291 290 290 289 286 289 291 292 291 291 291 291 291 291 291 292 292 291 290 295 298 297 299 298 298 298 298 299 299 299 299 299 299 299 299 300 300 300 300 300 299 298 296 294 293 293 293 293 294 295 295 295 295 295 296 295 294 293 292 292 292 292 291 291 290 289 289 289 289 289 288 287 286 286 285 285 284 284 283
291 285 288 286 284 285 288 287 286 287 287 286 286 288 289 290 287 289 288 292 289 288 289 289 288 289 295 297 297 298 298 297 297 298 299 299 300 300 299 299 300 300 301 301 300 300 299 299 298 297 296 295 294 293 293 293 294 293 294 295 295 296 294 294 294 293 292 292 291 290 290 290 289 288 288 288 288 288 287 286 285 285 284 284 284 283
288 287 286 286 284 284 288 287 284 285 286 285 286 289 291 291 292 292 293 294 293 293 288 286 288 294 296 297 295 296 297 297 298 299 299 299 299 299 299 300 301 300 300 301 301 299 298 299 299 299 298 296 296 294 294 294 293 293 294 295 296 294 293 294 294 293 292 291 291 290 290 289 288 287 287 288 288 287 286 286 285 285 284 284 284 283
288 287 286 288 284 285 287 285 286 284 279 281 292 295 294 291 291 289 290 292 294 295 293 295 295 297 297 297 295 295 296 297 298 300 301 300 300 299 300 300 300 300 301 301 301 300 300 300 300 298 297 298 297 296 295 293 293 294 294 293 291 293 294 294 293 292 291 291 290 290 289 288 287 287 287 287 287 287 286 286 285 285 285 284 284 283
287 287 286 287 284 284 286 285 283 278 281 291 296 297 297 296 295 293 293 294 295 295 296 295 296 297 298 299 298 299 299 300 301 300 301 302 299 298 300 301 301 301 301 301 300 300 299 299 298 297 295 293 294 294 291 291 292 293 290 291 292 293 293 293 292 291 291 290 290 289 289 288 287 287 287 286 286 286 286 286 285 285 285 285 284 283
287 287 286 286 286 286 284 284 277 279 287 293 295 296 296 295 293 292 291 294 295 295 296 295 296 298 299 299 300 300 300 300 300 300 300 299 299 300 300 300 300 300 299 300 299 300 299 298 297 296 295 295 292 292 291 293 292 291 291 290 291 291 293 293 292 291 290 290 290 289 289 288 287 287 286 286 285 285 285 285 285 285 285 284 284 284
292 288 288 284 288 282 284 284 283 289 288 289 289 289 290 288 289 290 286 289 295 297 296 296 296 297 298 298 299 299 298 294 293 297 296 297 298 297 298 298 299 298 298 299 298 298 297 295 294 294 293 293 291 290 292 292 289 290 289 289 290 291 291 291 291 291 290 290 290 289 289 289 288 287 286 285 285 284 284 284 285 285 285 284 284 283
294 288 288 285 283 287 283 282 282 282 279 285 291 293 296 297 296 296 291 288 294 295 297 297 296 297 297 297 297 296 293 291 291 293 294 296 297 297 296 295 295 295 296 296 294 294 293 292 292 292 291 291 292 290 290 289 288 288 288 289 289 289 290 290 290 291 291 291 290 290 289 289 288 287 286 285 285 284 284 285 285 285 285 284 284 283
294 293 289 287 285 284 283 281 281 279 282 288 287 290 292 292 298 293 290 286 289 288 290 292 293 293 293 291 291 290 291 287 289 291 294 294 294 294 295 294 294 293 293 292 291 292 291 291 290 290 289 289 290 290 288 289 288 288 289 289 289 289 289 289 290 291 291 291 290 289 289 288 288 287 287 286 286 285 285 284 285 285 285 284 284 284
289 289 287 284 283 285 283 282 280 284 283 285 286 288 289 290 297 292 281 283 288 288 287 290 291 289 289 289 289 288 288 285 285 291 292 292 291 291 292 293 293 293 293 293 292 288 288 288 290 291 292 291 291 288 288 287 287 288 288 288 288 287 288 289 290 291 290 287 289 289 288 288 287 287 287 286 286 286 285 285 285 284 284 284 284 283
285 285 286 283 284 284 285 283 284 285 288 288 288 288 289 294 291 283 279 286 286 286 286 288 288 288 287 286 287 285 288 291 291 291 290 290 290 292 292 292 291 290 291 291 292 290 290 290 288 289 290 290 290 289 287 286 286 287 288 287 286 287 289 290 288 287 288 288 287 287 287 287 287 287 287 287 286 286 286 286 285 284 284 283 283 282
285 285 285 286 284 283 284 282 283 286 289 289 289 291 291 290 282 281 283 283 283 285 286 286 287 287 287 287 287 287 290 289 288 289 289 288 288 288 289 290 291 292 292 290 289 289 290 290 289 289 289 288 288 288 286 285 286 287 286 285 287 288 288 286 287 287 287 287 287 287 287 287 287 287 287 287 286 286 285 285 285 284 283 283 282 281
285 284 282 284 285 285 284 282 282 278 286 287 289 287 290 285 283 283 283 285 286 287 286 286 287 287 287 287 287 287 287 287 286 288 288 288 288 288 289 289 289 290 290 290 290 290 289 289 289 289 289 289 288 285 284 284 286 286 286 286 288 287 286 286 286 286 286 286 286 286 286 286 286 286 285 285 286 285 284 284 283 283 283 282 281 281
289 283 283 284 287 281 282 280 281 285 285 289 289 284 285 286 287 284 285 285 287 287 285 286 288 288 287 285 286 286 286 286 287 287 287 288 288 288 287 286 286 286 287 288 287 288 288 288 288 288 288 288 287 285 283 284 286 286 285 287 287 285 284 284 284 284 285 285 285 285 285 285 285 285 285 285 285 284 284 283 283 282 282 281 280 280
289 286 286 283 288 285 283 285 285 285 286 289 290 288 290 290 288 284 286 286 286 286 287 286 286 287 286 285 284 283 284 285 285 286 285 286 287 287 287 287 286 286 287 287 287 287 286 287 287 287 287 287 287 286 284 282 284 285 285 286 284 284 284 283 284 285 285 285 285 285 286 286 286 286 285 285 285 284 283 282 282 281 281 281 280 280
286 286 287 287 285 288 287 287 287 286 285 286 289 289 290 289 288 286 288 286 288 288 288 286 286 285 284 284 282 282 283 285 285 285 286 287 287 287 287 287 287 285 284 284 285 286 286 286 285 285 285 286 286 285 283 283 284 285 286 286 283 283 284 283 283 283 284 285 285 285 285 285 285 285 285 285 285 284 283 282 282 281 281 280 280 280
287 285 283 283 286 286 281 285 283 284 285 285 288 289 288 288 289 289 289 289 289 288 286 285 285 285 284 283 283 282 283 284 284 285 285 285 286 287 287 287 287 286 284 285 284 284 284 284 284 285 285 285 286 284 283 282 283 284 286 286 285 285 285 285 285 285 285 284 283 282 283 284 283 283 283 283 284 283 282 282 282 281 280 280 280 280
283 285 284 283 285 283 283 285 285 284 285 286 289 287 288 290 288 288 289 289 288 287 286 286 285 285 286 285 285 285 285 285 284 285 285 285 286 286 287 287 287 286 286 284 284 283 282 283 283 283 284 284 285 284 282 282 282 282 281 281 284 284 284 284 285 285 285 284 284 284 284 284 281 283 283 283 283 282 281 281 281 280 280 280 280 279
285 287 279 284 283 284 286 285 285 286 286 286 287 287 288 288 287 287 287 288 288 288 288 288 288 287 286 286 285 285 284 285 285 285 284 285 285 286 287 286 286 285 285 285 285 284 283 283 283 283 283 283 284 283 282 281 281 280 279 279 280 281 281 281 283 283 283 284 284 284 283 283 282 283 282 282 281 281 281 281 281 280 280 280 281 281
285 281 284 283 279 280 281 282 285 280 281 284 285 285 286 286 286 286 287 287 287 286 287 286 286 286 286 287 286 285 285 286 285 285 285 285 285 286 286 286 285 284 285 285 284 284 283 283 282 282 283 283 283 282 281 280 279 278 278 279 279 280 281 281 281 280 280 281 281 281 281 280 281 281 281 280 280 278 278 279 282 281 280 279 282 283
282 281 284 280 280 279 284 285 284 285 284 287 288 286 284 283 284 285 284 284 284 285 285 284 284 284 285 286 287 286 285 285 285 286 285 284 285 285 285 285 285 284 284 284 283 283 283 283 283 283 283 283 283 282 281 279 277 278 278 279 278 279 281 281 282 281 281 281 281 281 280 280 280 280 280 280 280 279 278 278 280 283 282 282 282 283
Wind_Speed
1 2 3 3 4 6 5 5 2 4 4 1 1 0 2 2 5 4 2 2 0 1 5 7 7 9 11 9 9 8 6 7 7 7 7 8 8 8 8 7 7 8 11 7 9 11 12 11 10 9 8 8 8 8 9 10 9 9 10 9 9 7 7 6 7 7 7 7 6 5 7 5 5 5 4 3 3 3 2 4 5 5 5 6 7 8
0 1 3 5 2 4 0 4 3 3 4 2 2 2 3 1 3 3 3 2 0 0 2 4 5 8 12 10 7 6 7 11 11 11 10 9 9 9 8 8 9 9 4 5 6 7 7 8 9 9 9 10 12 10 11 11 11 9 9 10 9 8 7 8 7 7 7 7 7 6 6 5 5 4 4 4 3 3 1 3 4 5 6 7 7 7
1 4 4 2 3 3 4 4 5 4 1 3 1 1 1 4 2 0 7 3 2 3 6 7 8 9 10 11 9 10 12 11 11 10 8 8 10 9 7 8 9 7 6 6 8 7 8 9 9 8 8 9 11 11 11 10 10 10 10 9 9 8 8 8 8 8 8 6 5 5 4 6 4 2 2 3 3 4 3 3 4 4 6 8 7 8
2 5 5 3 3 4 4 3 1 1 1 0 2 1 3 1 2 3 0 1 4 3 3 2 9 12 13 14 19 19 12 9 6 7 9 9 12 13 9 6 6 7 8 8 8 9 9 10 9 7 8 9 8 8 8 10 11 9 9 9 9 9 7 7 8 8 6 5 5 5 6 6 5 4 4 4 4 3 3 4 4 3 2 6 7 8
3 1 1 2 2 2 3 2 3 3 2 3 2 2 3 1 1 2 2 2 3 2 1 3 9 11 10 9 9 11 10 8 10 6 8 11 10 9 6 5 5 6 7 8 7 7 8 9 11 12 9 7 7 7 8 9 10 8 9 9 9 9 9 8 8 9 8 8 8 7 7 7 7 5 4 5 3 4 3 4 4 4 2 2 5 6
2 0 1 4 1 2 2 3 4 3 3 3 5 7 4 2 4 5 5 6 5 2 1 1 7 5 1 7 8 6 1 6 6 6 10 11 9 7 7 10 6 6 6 7 10 12 12 11 7 6 7 8 7 8 7 6 7 5 7 8 8 7 7 9 9 9 9 9 9 9 9 8 5 6 6 8 9 7 6 6 4 3 4 1 3 4
1 0 1 5 4 2 1 1 3 2 3 1 1 3 2 1 3 3 4 4 3 2 2 2 1 10 1 2 4 3 5 6 4 7 10 9 8 5 7 7 6 7 6 5 3 7 7 7 7 6 7 8 8 7 6 6 7 7 8 8 9 8 7 8 9 9 8 9 8 10 9 8 9 9 5 4 5 6 5 5 7 5 4 3 4 4
3 1 4 2 5 4 3 1 2 6 2 2 1 2 1 2 1 1 1 0 4 3 6 4 5 6 13 6 9 10 6 6 6 9 9 10 7 6 6 6 6 6 5 5 6 7 8 8 10 10 9 8 9 8 8 8 8 9 9 9 10 8 9 7 8 10 9 9 9 9 8 7 7 7 7 7 6 6 6 7 7 6 4 4 4 5
1 5 4 4 2 3 5 1 2 6 2 1 1 3 3 3 3 1 1 2 3 5 8 3 4 0 8 1 7 10 7 6 8 9 7 8 6 6 6 6 6 5 4 5 5 5 7 8 7 8 9 8 8 8 9 9 8 8 8 9 8 9 8 7 9 10 9 8 9 9 8 8 6 6 7 7 6 7 7 7 6 7 5 4 4 4
3 1 1 3 5 4 2 1 4 4 3 2 1 2 3 3 1 1 1 1 3 2 9 6 4 3 13 11 3 5 6 6 9 7 7 8 5 3 5 5 5 5 6 6 4 4 7 7 7 7 7 7 8 7 7 6 7 7 7 9 10 8 7 7 9 9 9 9 9 9 9 9 8 7 7 7 8 7 7 7 7 7 6 5 5 4
0 3 4 1 2 1 3 3 3 6 3 5 3 4 1 2 1 1 0 1 3 3 8 9 9 3 7 4 5 7 4 8 6 4 4 2 2 4 4 6 5 5 5 5 4 3 5 5 6 6 8 7 6 6 7 7 8 7 8 8 9 8 7 7 9 10 11 9 9 9 9 10 10 9 9 9 8 8 8 8 8 7 6 5 5 5
1 1 0 0 0 3 4 4 4 2 2 3 2 1 1 1 3 1 1 1 1 7 1 9 9 9 5 3 4 2 3 5 7 5 4 2 0 2 5 5 5 5 5 4 4 4 4 5 5 5 6 6 7 6 7 6 7 8 8 9 10 8 8 8 9 10 11 10 10 8 9 10 10 10 9 11 11 10 10 9 8 7 6 6 5 5
1 2 2 2 5 3 3 6 3 2 0 0 3 2 5 2 2 1 1 1 5 8 2 1 6 1 17 5 3 3 3 1 1 1 1 0 1 2 3 5 5 5 5 5 5 5 5 5 6 6 6 6 7 8 7 7 6 6 7 9 10 9 9 9 10 11 11 10 10 10 9 8 8 10 10 10 9 9 9 8 8 9 8 7 6 6
2 2 4 3 3 4 3 7 3 1 4 4 6 6 5 2 2 4 4 3 3 3 1 1 4 7 4 2 8 10 8 5 1 3 3 1 4 5 2 5 5 5 5 6 6 6 6 7 6 6 6 7 7 7 7 7 6 6 6 8 10 10 8 8 9 11 11 11 9 9 9 6 7 9 9 9 9 9 8 8 9 9 9 9 9 9
3 4 5 6 4 7 6 8 11 6 9 10 4 9 8 7 4 4 4 5 6 3 0 2 2 7 1 2 2 11 11 6 6 7 6 5 5 5 2 6 5 5 5 6 6 7 8 8 7 7 7 6 6 7 7 7 7 7 7 8 8 9 7 9 9 8 10 9 9 9 8 7 6 7 7 7 7 9 9 8 9 8 7 7 7 8
11 5 1 11 1 11 11 4 1 5 2 4 3 1 3 8 1 3 1 0 1 3 3 2 6 2 4 0 1 3 1 6 9 9 6 5 6 7 4 4 4 5 5 5 5 6 6 6 6 6 6 6 6 7 7 8 8 8 8 7 8 8 7 9 9 10 10 10 8 9 9 9 7 6 6 5 5 7 7 7 8 8 8 6 7 6
2 4 1 3 3 8 4 0 2 4 5 5 5 6 5 1 2 1 2 2 3 2 12 3 8 8 4 13 11 13 11 8 5 5 6 7 8 8 7 3 4 4 4 5 6 5 5 5 6 7 6 6 6 7 9 9 9 9 7 7 8 7 6 8 10 11 11 10 10 10 9 8 8 8 9 8 7 8 7 6 6 7 7 7 7 7
7 2 2 1 3 1 1 2 1 3 1 6 2 4 1 3 3 3 3 0 2 6 8 4 11 11 1 12 2 8 6 8 6 8 9 9 8 7 6 6 5 3 3 5 5 5 5 6 6 6 6 7 8 8 8 9 8 8 8 9 9 9 10 10 11 11 11 11 10 8 9 9 9 9 9 8 8 7 7 7 6 6 6 7 8 8
3 1 2 2 3 2 3 1 1 2 4 2 4 2 4 2 2 2 3 5 4 4 5 6 6 11 10 13 2 2 6 8 9 10 7 6 5 7 7 7 4 3 1 3 3 4 4 5 5 7 7 7 7 7 7 8 8 7 7 9 10 12 11 12 11 10 8 9 8 8 9 9 9 8 8 7 8 8 8 9 8 8 7 7 8 8
1 4 1 2 2 1 1 3 8 3 2 1 2 2 1 1 1 6 6 1 3 5 1 11 2 14 3 5 6 10 11 10 10 8 6 6 7 8 7 6 5 5 5 4 4 5 5 5 6 7 7 7 7 7 7 8 7 8 8 8 8 8 8 9 11 10 10 9 8 8 8 9 8 8 8 7 8 9 9 9 8 8 8 9 8 8
1 3 5 0 5 1 2 5 7 9 9 3 1 2 0 1 1 2 2 4 3 1 4 3 10 9 1 7 7 10 9 10 9 9 7 6 7 7 7 6 5 6 5 4 4 4 5 5 5 5 5 5 5 5 6 7 9 9 8 8 9 11 10 9 10 10 10 9 10 10 11 10 10 10 8 7 8 9 9 8 8 8 8 8 9 9
2 3 6 3 0 5 6 5 11 10 14 12 14 13 14 9 4 3 7 1 2 3 3 2 11 14 1 5 4 3 9 10 5 6 6 7 6 5 4 4 5 5 5 5 5 5 5 4 4 3 4 4 5 5 6 7 7 8 9 9 9 9 10 10 10 10 10 9 10 11 10 10 9 10 8 9 7 8 8 7 7 7 8 9 8 9
6 3 3 5 8 8 2 0 1 3 1 1 5 7 6 5 3 3 5 4 0 4 3 3 2 21 1 4 2 4 4 5 4 3 1 4 5 6 5 5 5 5 6 6 5 4 4 4 5 5 5 6 7 7 8 7 8 9 9 9 9 10 10 9 10 10 10 10 10 11 10 8 9 9 9 10 8 8 8 8 8 8 10 9 9 7
6 2 1 3 2 2 3 1 3 2 1 2 2 2 4 8 8 7 6 4 4 2 4 5 5 13 2 3 2 3 1 1 2 2 4 1 4 5 6 6 6 4 4 4 4 4 4 5 5 5 5 7 8 8 9 9 8 8 8 9 9 11 10 9 9 10 11 11 11 10 9 9 8 10 11 11 9 9 8 8 8 8 9 9 9 10
5 3 5 3 0 1 1 1 1 2 1 0 1 3 4 4 8 5 1 1 4 8 11 8 12 15 0 3 1 1 2 1 2 5 3 4 3 2 2 4 4 5 4 3 4 4 4 4 6 7 7 8 8 8 8 9 10 9 10 9 11 10 9 9 8 10 11 12 13 12 12 10 9 11 12 12 10 10 9 9 8 8 9 9 9 9
5 6 8 6 9 8 7 7 6 4 7 3 3 6 8 8 8 6 8 6 8 13 12 6 11 14 2 3 2 2 0 1 4 5 2 1 1 1 4 6 4 2 3 3 4 5 7 8 6 7 8 8 9 9 9 9 10 10 9 11 9 10 9 10 8 9 11 12 13 13 14 13 12 13 13 12 11 11 10 9 9 9 8 10 11 9
3 5 10 11 11 13 12 2 4 9 5 6 8 13 11 11 10 8 4 6 15 14 5 11 16 19 16 3 1 0 0 3 3 2 2 3 4 6 5 4 3 4 4 6 6 6 4 5 10 11 9 9 8 8 9 8 9 9 10 9 9 9 10 10 9 9 10 11 12 12 14 15 15 13 12 12 11 9 9 10 10 10 10 9 11 11
2 4 10 13 15 16 12 4 4 16 14 15 15 13 15 13 13 13 13 18 14 3 14 14 9 11 25 12 7 8 6 5 5 4 6 5 5 7 7 6 7 5 5 3 4 6 9 10 8 9 11 9 10 8 8 9 9 10 10 11 9 9 10 9 9 9 10 11 12 13 15 15 14 13 13 11 10 10 10 10 10 11 10 9 11 12
5 8 8 10 13 15 14 8 9 9 10 11 13 12 13 14 12 16 20 21 9 10 16 15 6 12 20 15 5 6 8 8 6 8 6 7 5 3 5 7 8 7 6 5 7 8 8 9 10 11 10 10 7 9 10 9 10 8 8 9 9 9 12 10 10 11 11 11 13 15 13 12 11 11 12 13 12 11 12 11 10 10 10 10 10 9
3 5 6 10 12 13 14 13 6 9 4 5 10 12 14 17 20 22 21 18 15 12 14 18 18 17 18 22 14 5 11 12 11 11 11 11 11 9 8 8 8 7 7 8 9 10 10 11 10 9 8 8 11 11 10 10 11 12 11 10 10 10 10 10 11 12 12 13 15 12 10 11 10 11 12 13 14 13 12 12 11 11 11 11 10 10
5 7 11 4 5 10 14 11 6 7 5 4 3 5 13 18 20 21 17 14 12 15 17 20 20 21 20 17 12 10 8 7 8 11 12 12 12 11 11 9 8 8 8 8 9 9 10 10 9 8 7 10 11 13 13 12 12 10 10 10 11 12 10 10 11 12 12 14 12 10 9 10 12 11 13 14 13 12 13 13 11 12 12 11 11 11
4 3 2 3 7 10 10 8 5 1 1 2 6 11 14 14 12 8 9 9 12 15 14 10 13 18 22 7 7 13 10 7 13 14 12 10 11 12 12 13 11 10 10 10 9 9 8 8 9 9 10 11 12 12 11 12 12 10 13 13 12 12 8 10 12 13 13 12 9 10 11 12 11 12 13 13 14 14 13 12 11 12 13 12 11 11
5 4 4 4 8 12 13 3 4 4 1 6 15 22 22 12 6 4 7 11 14 10 8 11 17 16 16 13 9 12 13 11 13 15 15 13 9 7 9 12 11 8 8 9 9 7 6 8 8 9 10 9 10 11 13 14 10 12 15 15 13 6 8 12 13 12 11 10 11 11 11 11 12 13 13 14 14 13 12 13 13 13 12 14 12 10
4 5 5 3 8 9 11 3 5 5 10 17 19 14 7 13 12 13 15 15 10 9 10 12 14 14 14 15 13 12 14 14 13 14 14 12 9 8 10 12 10 8 8 9 8 7 7 7 7 6 7 9 10 12 11 8 11 14 11 7 5 9 11 11 10 10 11 10 11 12 11 11 11 13 14 12 12 12 13 14 15 13 12 10 10 12
5 4 4 2 2 8 3 8 2 13 14 14 6 3 9 10 11 15 17 18 17 15 13 14 15 17 18 16 15 16 16 16 14 16 20 13 5 6 9 12 13 13 12 10 8 7 7 7 7 7 7 6 8 7 5 6 9 10 5 7 9 8 9 10 10 10 10 11 11 11 11 13 13 13 12 12 11 12 13 14 12 12 11 11 12 12
6 7 3 1 2 2 2 6 10 9 4 2 4 9 6 5 5 6 10 14 15 13 13 16 17 16 17 19 18 14 13 15 12 12 11 7 3 6 9 9 9 8 9 8 7 7 7 7 7 6 6 6 5 5 5 9 8 6 8 5 7 8 10 10 10 10 9 12 13 14 13 13 13 13 11 11 11 12 13 13 13 14 11 10 9 8
10 4 4 5 5 8 8 12 13 5 10 7 8 4 4 5 7 10 11 11 12 12 13 14 16 17 16 14 14 14 10 5 8 4 11 12 11 7 6 8 6 8 7 7 6 7 7 6 7 7 6 7 5 5 6 7 5 5 5 5 7 8 8 8 9 11 13 14 13 14 14 13 13 12 11 11 11 12 12 13 12 11 8 10 10 10
9 12 8 11 6 9 10 8 3 5 10 14 9 2 8 9 9 10 9 6 4 5 7 11 15 15 13 11 11 10 3 4 10 2 7 12 11 10 9 8 8 9 9 10 9 8 8 7 7 7 5 6 7 5 5 4 5 5 5 7 7 7 8 8 11 12 13 13 12 12 12 12 12 12 11 11 13 13 11 9 7 9 9 11 10 10
8 9 7 11 5 7 9 9 8 8 7 4 2 4 1 1 10 6 7 9 2 8 8 6 5 6 6 6 7 4 2 3 8 3 6 10 10 9 9 9 8 8 7 6 6 8 9 9 7 7 6 5 7 6 4 4 5 5 7 7 8 8 8 10 12 13 14 14 10 9 9 10 11 12 12 13 13 12 12 12 12 10 9 9 10 11
13 10 7 9 7 5 7 8 8 3 5 1 3 1 2 0 5 7 4 3 1 7 6 6 7 7 6 7 6 7 5 1 6 7 7 7 5 6 6 8 10 11 11 10 7 5 5 5 8 12 12 11 10 5 4 3 4 6 8 9 6 7 10 13 15 11 5 5 6 6 7 8 11 12 12 13 12 10 11 9 8 10 11 10 9 9
8 4 9 11 10 11 11 5 1 4 4 3 6 3 3 2 3 3 8 3 0 3 5 5 4 3 3 4 5 4 0 1 6 9 8 6 6 9 9 8 7 5 7 9 10 10 9 8 5 6 9 10 9 7 5 3 4 7 8 7 6 11 14 11 5 4 6 6 6 7 8 8 10 12 11 11 11 10 9 8 9 8 8 9 7 7
4 2 1 5 9 9 8 8 7 3 1 2 1 5 2 4 5 7 1 2 3 1 2 4 5 5 5 2 1 2 6 5 7 8 7 5 5 4 5 8 10 11 9 7 8 7 10 11 11 11 10 7 7 6 5 4 5 7 6 5 11 14 6 4 6 6 6 8 8 8 9 9 7 8 9 8 8 9 9 7 7 7 8 7 8 10
7 6 5 8 4 2 2 6 4 7 1 3 0 3 2 5 0 1 1 2 1 0 2 2 1 2 5 7 4 4 6 7 5 7 9 8 7 7 7 7 9 10 12 14 16 14 10 11 12 13 13 10 7 5 5 4 7 8 6 9 13 6 4 5 5 6 6 7 7 7 8 7 8 8 7 8 8 10 9 8 8 8 8 8 8 9
4 5 2 4 5 5 7 8 5 2 1 3 2 3 1 2 3 5 3 1 0 1 2 1 0 1 1 3 8 10 8 8 9 8 11 10 9 8 4 2 3 5 6 6 5 7 9 11 11 12 13 11 8 6 5 4 8 8 8 13 6 4 3 4 4 4 5 6 7 7 7 8 8 9 9 11 11 11 11 10 10 9 8 8 8 9
6 8 2 5 4 6 3 1 2 2 1 1 5 4 4 4 3 3 3 1 0 2 1 1 0 0 0 1 3 4 6 5 7 8 7 9 9 10 10 9 6 6 7 8 9 9 7 8 11 13 14 13 9 8 5 4 7 10 11 9 3 4 4 4 4 5 6 6 6 6 6 7 8 8 9 9 11 11 10 11 11 10 9 9 7 8
3 1 0 3 1 3 3 3 4 0 2 1 2 3 5 3 1 2 1 2 1 0 1 1 1 1 2 1 2 2 3 6 7 8 9 9 10 10 9 9 6 3 4 4 6 7 7 9 9 9 12 14 7 7 5 5 5 10 11 5 4 3 3 4 5 5 6 5 5 6 6 7 6 7 8 9 8 10 10 11 11 10 9 9 8 8
2 1 2 3 1 5 5 4 3 2 1 2 3 4 1 3 2 2 1 0 2 3 3 3 2 2 2 2 1 3 5 5 6 7 5 6 9 10 11 11 11 8 7 9 6 6 7 6 10 12 12 14 10 6 6 5 5 7 7 6 3 3 3 4 5 6 5 6 6 5 6 8 7 6 6 7 6 6 7 8 8 9 9 9 9 9
2 3 3 2 1 4 1 5 4 3 1 0 3 4 3 2 2 2 1 0 1 1 1 3 2 2 1 2 2 2 4 5 5 8 7 7 8 9 10 11 13 13 11 6 6 5 5 5 7 9 10 12 11 8 7 6 6 5 5 4 2 2 3 3 4 5 5 5 5 6 7 7 8 9 7 6 7 7 6 6 8 9 10 11 11 11
3 2 2 3 4 3 0 2 4 2 0 1 2 2 2 2 2 3 3 4 4 6 6 5 4 4 4 4 3 2 4 6 5 6 6 7 8 9 10 10 10 10 11 13 10 8 8 6 7 7 8 11 9 8 7 6 6 4 4 3 1 1 3 4 3 3 3 4 4 4 4 5 6 6 6 5 4 2 3 6 7 6 4 1 3 6
6 4 3 2 2 3 6 4 7 2 3 3 4 4 5 4 4 4 6 8 9 8 8 8 8 5 4 4 5 5 5 7 6 7 9 8 8 9 11 11 11 11 12 10 9 9 9 8 7 8 8 9 7 6 7 6 5 3 2 1 1 2 3 2 2 2 3 4 4 4 5 5 5 6 7 7 6 6 4 5 5 4 6 5 5 7
6 4 5 5 5 5 3 5 4 5 4 6 7 4 6 4 5 8 8 7 6 5 5 6 7 8 8 7 5 5 5 7 9 9 10 10 10 9 9 10 11 12 12 11 11 12 11 12 10 9 9 9 6 6 6 5 4 2 2 1 2 2 3 2 3 3 3 4 5 6 6 6 7 6 7 7 8 7 8 6 4 6 8 6 7 8
Wind_Direction
40 146 176 195 208 192 198 218 202 65 39 11 9 31 322 358 315 76 83 113 294 19 256 247 260 269 267 254 257 260 268 269 260 245 235 231 236 235 234 232 227 218 224 204 196 184 183 176 173 168 165 160 163 165 168 164 169 171 165 160 167 173 173 167 159 164 178 177 158 149 167 165 153 144 143 125 95 71 87 126 142 144 137 138 133 139
92 232 216 223 212 34 172 172 86 77 35 32 13 21 315 247 239 283 156 164 342 53 276 278 277 267 272 270 259 245 233 242 245 252 251 250 241 236 228 228 229 231 222 188 192 179 165 164 169 168 168 162 168 181 174 174 175 173 165 168 164 177 176 170 171 173 184 194 184 166 168 143 143 144 162 145 139 126 149 126 117 132 147 146 141 147
80 193 234 189 81 88 50 55 55 35 16 85 340 326 338 291 287 345 87 136 140 128 264 265 261 258 258 265 264 245 236 232 232 238 247 247 256 252 229 221 223 222 220 190 193 160 162 165 173 175 178 180 180 175 179 172 168 175 171 172 165 178 175 171 172 178 187 177 164 160 143 139 119 69 97 111 124 127 155 117 103 111 149 151 149 155
192 227 232 100 98 101 67 67 60 133 79 189 165 27 227 214 77 294 265 196 176 175 248 328 302 272 259 255 255 254 248 249 234 231 241 234 248 250 244 222 215 212 206 196 181 172 171 171 175 177 185 187 177 175 176 175 177 178 174 175 168 174 172 174 179 170 175 151 128 113 122 116 121 149 122 112 114 125 137 125 107 83 113 149 152 155
187 102 345 84 92 104 121 99 126 121 221 212 210 236 240 204 233 164 301 342 288 234 66 309 273 269 238 237 251 263 246 245 253 250 255 253 246 249 255 255 222 212 205 199 183 174 168 175 187 189 182 169 182 185 187 181 181 183 177 174 168 168 172 175 177 169 147 125 116 109 95 100 98 90 121 124 147 167 152 122 130 142 79 125 140 140
172 299 109 99 82 93 116 149 191 155 261 206 212 196 211 305 355 359 358 5 347 328 31 9 344 298 295 198 222 254 169 223 234 218 240 244 248 245 242 243 243 241 225 185 189 184 184 186 181 175 174 178 185 188 189 183 179 166 170 166 167 165 168 178 176 159 153 155 147 145 147 160 169 165 170 187 179 168 166 161 134 124 127 123 124 123
164 255 246 130 130 114 136 184 195 146 202 341 277 0 30 359 46 20 339 39 329 302 246 136 79 280 82 275 220 214 184 214 234 221 242 249 247 223 227 229 224 227 238 236 165 166 172 179 169 176 180 183 186 192 173 173 177 168 169 167 170 172 172 176 175 158 163 158 162 170 175 176 179 174 187 165 153 162 155 146 149 151 140 152 144 125
97 162 72 113 102 139 131 194 204 159 146 247 307 339 54 54 98 322 34 315 241 302 289 202 156 271 296 213 223 217 190 204 221 235 236 242 244 231 225 206 210 214 210 187 197 169 176 169 172 181 184 181 189 179 172 177 177 174 175 169 175 173 176 180 169 166 173 169 170 172 177 177 180 179 168 168 159 154 148 150 153 149 151 140 141 132
138 162 154 142 161 139 184 204 190 164 157 200 268 326 72 71 66 46 47 301 287 7 301 117 147 251 267 221 193 197 191 203 219 238 242 246 242 232 211 186 196 191 163 150 170 147 154 163 176 177 182 187 176 177 179 180 179 174 171 172 172 172 174 169 162 167 178 175 175 176 175 176 185 167 164 162 151 150 147 147 150 152 152 139 128 129
6 142 199 159 145 183 84 15 354 161 143 267 194 62 90 69 64 57 1 30 317 34 272 154 175 203 279 286 198 174 183 195 221 225 230 242 227 161 139 148 115 82 67 64 86 105 146 164 176 179 171 173 182 179 171 172 171 172 169 174 171 174 172 158 162 168 179 179 175 181 184 180 180 172 158 162 156 157 155 153 156 151 155 150 141 136
96 197 182 44 181 100 126 52 41 65 88 139 171 88 41 61 94 19 73 66 30 260 252 154 197 177 283 303 173 138 202 193 205 216 236 234 140 181 168 142 128 110 94 97 96 90 117 149 155 152 166 176 170 170 168 171 174 169 171 168 174 177 166 160 166 173 184 181 186 189 186 186 182 173 159 159 165 161 164 165 162 161 162 155 150 143
139 40 268 112 315 129 114 70 18 18 106 135 117 125 92 332 34 30 330 63 150 267 289 173 174 182 212 282 320 225 220 193 161 175 209 183 286 138 142 124 119 121 132 131 123 122 111 113 139 153 163 172 172 163 171 175 174 175 172 170 176 177 171 169 171 178 186 186 188 192 188 187 185 170 170 172 172 173 172 169 165 161 154 155 146 150
201 221 138 45 298 161 152 95 21 20 357 55 127 125 118 229 65 311 99 253 194 239 272 347 170 323 240 228 218 181 207 242 304 30 40 265 329 311 135 138 125 137 142 146 157 159 156 169 173 182 181 171 177 177 176 181 178 177 178 175 179 186 177 178 176 185 188 190 190 191 193 187 169 172 174 175 174 175 176 173 168 166 167 155 154 166
264 78 140 107 29 253 184 132 171 40 220 180 162 153 121 194 198 244 214 204 258 270 341 65 19 247 279 297 217 250 229 207 202 249 213 203 235 251 217 140 138 155 162 168 172 177 181 185 192 189 187 185 180 176 178 178 178 181 187 184 186 190 179 176 182 189 192 197 196 194 196 186 159 175 178 180 176 181 183 177 179 177 173 171 174 168
201 297 232 132 237 174 198 202 177 169 165 200 179 162 173 161 174 211 174 203 221 229 243 285 92 236 98 260 257 223 238 232 214 223 217 219 227 236 224 133 146 162 185 174 180 186 191 194 188 188 190 187 180 174 177 179 184 182 187 185 188 191 182 175 182 188 195 196 198 198 194 193 160 174 178 179 177 178 183 183 181 181 174 176 170 171
207 215 247 173 2 154 189 214 154 112 113 206 208 260 277 227 100 196 181 353 338 355 326 223 209 223 184 240 275 21 8 194 213 216 199 229 250 258 250 152 177 195 192 191 195 204 204 190 186 182 190 188 180 181 179 184 184 190 192 182 188 190 180 177 181 192 196 197 197 197 194 195 174 169 172 172 168 182 185 181 181 180 175 174 163 157
94 227 346 17 45 168 194 7 201 140 185 212 139 213 195 321 117 340 353 58 101 38 257 160 282 255 290 265 241 238 225 225 222 226 212 219 232 244 259 243 223 197 192 192 204 207 198 188 189 186 183 187 186 185 188 187 186 189 185 181 181 189 184 183 188 192 193 195 195 198 194 189 182 179 185 185 178 179 182 178 181 179 172 158 158 159
147 214 323 60 197 319 238 271 343 48 32 98 183 222 100 49 95 125 208 7 180 220 263 121 239 279 326 291 240 205 212 234 212 225 218 214 223 241 256 264 266 247 219 210 198 191 189 189 189 186 189 191 191 190 186 189 187 188 184 180 184 188 189 192 189 192 194 191 192 193 194 192 189 187 189 186 182 176 176 181 175 168 165 165 159 161
149 196 261 359 349 321 329 7 352 14 58 109 178 336 128 247 271 245 92 257 247 245 281 258 250 270 222 246 305 199 198 221 223 226 221 228 227 235 242 251 262 264 181 133 150 164 176 181 187 190 196 198 193 190 185 182 183 185 184 184 187 193 195 192 191 190 190 189 187 191 195 193 190 187 186 185 179 176 184 183 179 173 166 147 152 151
89 190 278 320 0 98 17 133 198 195 342 133 14 348 135 90 179 155 194 199 139 243 204 277 332 269 137 230 194 233 199 203 216 219 217 215 212 226 228 219 201 191 181 181 177 186 187 191 191 192 195 195 194 191 183 179 183 190 188 185 192 198 197 192 192 188 190 186 183 187 189 196 190 185 188 186 174 178 185 184 176 167 157 162 154 160
226 148 235 281 308 43 195 202 211 162 175 250 193 256 135 145 276 109 286 178 167 199 218 272 292 264 250 220 189 218 187 189 201 208 196 213 224 217 204 190 175 175 183 188 190 184 190 200 198 200 200 199 197 187 178 183 189 191 189 194 192 196 198 194 192 191 195 183 190 186 192 190 185 187 186 186 180 178 182 179 175 171 163 146 163 157
179 149 190 124 315 220 230 195 205 192 191 185 186 204 192 157 183 173 262 187 210 168 235 259 258 277 152 16 90 101 156 183 182 176 198 204 213 187 163 170 167 176 190 186 187 181 188 195 206 200 197 195 192 196 190 192 186 190 196 197 197 199 201 190 191 194 192 190 191 195 193 190 184 182 184 187 181 181 178 175 174 163 150 163 164 162
164 170 129 182 208 209 197 2 84 91 76 233 185 238 186 192 152 163 205 256 179 248 262 233 8 269 175 241 37 88 83 94 79 74 104 178 170 175 181 171 187 182 184 181 175 181 178 181 183 192 194 203 206 207 197 196 196 195 196 195 200 201 205 193 193 188 188 192 194 197 193 185 184 178 181 184 183 182 179 177 170 164 163 162 161 164
67 99 111 266 138 100 31 70 40 49 47 325 305 15 153 189 190 194 188 188 182 200 214 243 227 263 353 14 68 90 347 57 66 49 358 295 207 182 158 175 186 180 196 159 154 163 170 175 179 181 201 211 216 209 205 204 200 198 197 198 198 205 200 197 190 184 185 189 195 194 191 190 183 179 181 186 185 183 181 175 170 167 165 163 159 164
148 228 153 145 273 298 18 358 348 360 34 201 217 198 218 208 192 197 104 53 244 204 210 173 235 255 283 327 358 32 74 295 318 299 208 207 229 195 195 235 221 185 168 167 180 194 187 184 191 204 207 212 216 218 211 206 204 201 201 196 201 203 198 197 190 185 187 187 188 190 194 193 185 186 185 188 185 184 177 176 169 170 169 162 164 168
152 162 155 171 201 216 224 208 200 202 212 217 216 214 207 198 190 151 217 200 225 240 211 210 251 256 209 24 65 32 60 309 285 267 294 320 218 257 218 225 207 158 201 214 208 194 212 210 216 215 211 212 215 217 218 214 208 207 205 204 197 198 196 200 189 188 185 189 188 190 192 193 190 192 189 186 186 184 179 173 173 173 175 172 166 166
162 180 178 186 200 223 233 209 200 141 103 179 218 199 207 210 205 197 184 203 221 236 227 228 237 265 259 210 23 315 354 245 245 272 267 264 269 276 267 261 217 210 222 234 225 226 225 220 220 222 220 217 216 213 217 218 215 212 209 210 203 198 195 196 190 186 188 191 193 190 194 193 193 190 187 187 185 179 177 178 176 174 179 180 167 168
90 191 209 208 216 230 234 190 193 154 178 201 199 205 203 198 201 204 199 225 217 231 258 240 235 255 266 247 232 263 261 257 263 250 233 243 252 244 246 259 267 268 258 251 236 221 221 228 232 227 224 217 218 216 222 223 221 214 210 211 203 196 194 195 190 190 193 191 197 200 200 196 189 188 186 181 180 180 181 179 179 180 177 177 175 175
149 202 217 215 229 236 237 225 164 183 184 189 199 191 192 200 203 208 223 232 212 204 239 257 218 242 263 271 194 209 247 250 233 234 227 224 240 284 281 268 265 258 260 252 249 244 238 235 232 229 222 220 214 216 219 220 226 224 220 214 204 196 202 189 189 196 196 197 202 207 203 193 190 187 180 177 180 183 184 183 179 177 178 182 182 179
137 235 210 210 229 237 243 237 196 185 203 188 192 196 195 196 206 211 222 229 227 236 247 258 262 257 265 271 264 264 279 284 291 290 288 288 283 277 270 267 264 258 247 245 246 246 245 244 244 236 218 212 212 217 216 218 221 220 217 217 207 203 203 180 196 197 198 203 210 205 197 196 192 188 182 179 184 186 183 182 179 178 181 185 183 179
157 225 202 189 220 243 245 247 233 229 225 248 266 228 209 205 209 212 217 226 231 244 245 252 260 265 258 259 289 272 273 301 288 278 277 279 283 280 278 276 272 270 265 257 255 256 255 255 251 244 219 218 216 216 214 216 220 219 221 221 212 209 199 184 196 202 201 209 208 200 193 194 197 189 188 187 184 183 184 183 179 179 182 183 182 180
159 269 42 113 213 246 243 224 210 96 54 291 255 253 247 230 221 210 215 213 217 225 235 253 262 260 265 273 274 286 278 270 278 277 274 274 276 284 289 286 279 275 274 270 263 262 271 271 259 243 230 225 223 219 215 217 216 207 219 219 215 211 184 191 202 204 207 207 197 197 198 201 196 194 195 186 187 186 184 178 179 182 183 181 181 184
172 159 165 169 209 239 244 140 133 123 103 267 250 238 231 237 229 211 223 218 222 217 224 225 240 254 272 279 274 276 282 274 272 279 283 279 280 289 289 283 280 276 274 276 276 275 270 267 264 252 240 234 229 223 222 217 205 209 219 215 215 182 185 202 206 206 206 202 199 201 201 197 198 201 197 196 189 184 177 182 183 183 182 188 184 171
136 164 197 149 220 236 246 139 117 114 215 232 234 244 228 229 219 231 242 243 235 198 223 228 250 261 268 274 272 271 275 274 274 278 277 285 305 307 294 289 288 285 284 284 289 293 288 289 288 273 246 238 235 228 231 209 209 221 222 212 187 192 205 205 208 205 207 201 203 203 199 197 200 204 204 197 190 183 183 184 189 187 184 177 177 183
160 162 199 155 148 239 233 97 156 223 234 247 293 295 238 235 223 227 238 240 242 241 246 255 256 259 263 267 268 269 270 276 281 284 285 298 331 298 282 287 294 299 300 300 305 306 306 305 309 316 314 282 253 246 219 215 217 227 204 192 202 203 206 209 208 206 203 205 206 201 199 199 201 205 203 199 192 188 188 187 186 186 185 181 184 183
175 180 143 219 161 359 296 198 234 231 241 332 257 235 234 214 208 228 258 250 246 242 239 247 250 254 260 264 267 270 273 277 282 278 299 328 310 293 309 320 325 328 318 314 318 314 318 323 322 325 312 290 271 259 215 229 223 214 219 196 201 204 210 207 208 208 204 210 206 204 202 199 201 202 201 198 196 193 191 189 188 187 183 182 186 188
189 176 179 228 177 220 216 231 239 356 303 281 271 235 138 157 166 181 226 246 235 234 234 241 247 250 252 259 268 272 276 303 292 313 28 20 360 4 350 330 340 328 324 319 326 321 331 344 345 332 330 331 307 259 240 239 218 211 212 200 215 211 216 209 213 212 212 215 208 206 202 199 197 197 198 198 198 199 194 191 190 187 179 182 184 180
182 193 188 207 217 199 216 240 229 211 234 249 250 202 164 177 180 184 186 260 257 264 248 238 243 250 258 262 264 275 316 313 286 275 38 10 348 344 336 333 337 340 337 334 342 345 346 343 341 334 342 325 316 284 267 253 208 202 208 216 216 212 216 211 221 220 221 221 214 210 202 198 194 194 193 194 201 201 200 194 188 186 179 183 178 181
204 195 182 201 187 174 206 218 220 219 237 208 134 155 294 202 184 151 156 231 52 21 5 16 17 11 10 9 330 0 51 271 262 267 25 8 343 340 338 333 334 328 326 330 336 338 337 332 321 302 313 320 312 301 278 223 196 195 217 219 219 213 215 218 225 222 221 222 212 208 200 196 193 193 192 196 199 197 195 192 190 183 176 183 181 180
201 199 176 206 213 201 191 214 220 217 247 278 188 218 233 222 99 104 190 237 25 352 352 19 39 37 14 11 0 41 75 224 277 298 341 333 318 320 340 339 338 337 333 333 331 324 302 305 335 334 330 323 307 297 282 218 193 211 221 226 214 213 221 225 226 231 249 241 216 206 196 195 196 195 193 196 193 193 195 188 181 182 184 184 178 171
191 192 194 202 204 214 214 234 299 277 276 164 163 195 213 155 82 173 210 155 63 350 344 24 48 67 42 25 39 19 328 201 267 286 305 310 341 341 340 337 330 323 320 325 325 329 333 330 329 304 298 298 303 307 289 219 219 236 235 230 216 227 227 230 231 222 214 203 200 198 199 200 197 196 196 190 187 185 187 187 192 182 179 173 164 157
206 193 197 197 215 214 215 225 229 279 236 60 185 160 192 85 188 215 154 202 201 332 347 31 6 353 19 28 10 267 275 286 284 292 303 323 332 314 320 322 328 332 327 318 318 338 333 328 324 317 308 299 299 300 287 250 244 250 253 239 237 238 240 225 217 204 196 198 197 194 194 196 196 195 192 181 172 177 181 174 165 172 174 174 167 158
185 175 196 197 188 210 167 229 208 220 359 37 289 54 116 199 229 151 248 289 186 306 103 9 24 0 2 331 319 291 298 313 307 307 319 327 344 345 340 338 339 334 331 334 334 336 341 327 322 316 308 311 313 308 294 269 262 265 257 248 250 256 241 219 205 198 197 197 195 194 190 186 178 174 164 167 170 171 174 162 161 163 168 170 166 159
184 161 191 219 170 192 199 219 214 150 184 298 80 160 12 134 177 183 155 350 280 150 120 138 340 69 356 319 321 326 328 330 331 340 335 337 339 334 334 334 313 310 316 310 299 306 326 322 315 313 309 312 316 313 307 277 273 272 268 260 276 250 223 204 192 181 188 196 195 186 183 178 174 167 166 170 168 169 164 163 161 160 168 169 168 161
194 192 172 186 180 179 212 191 143 198 151 42 95 106 116 139 145 185 145 188 102 322 88 81 185 227 242 280 298 302 322 329 321 326 334 320 325 328 333 335 336 329 332 333 328 323 325 319 312 312 309 309 319 313 304 287 276 281 270 280 271 225 197 184 175 181 195 196 191 186 183 176 177 172 168 168 165 165 164 162 161 164 169 164 170 166
358 152 22 103 299 94 42 118 137 47 85 30 76 120 124 135 159 137 102 38 312 135 322 242 286 285 317 321 9 327 325 311 328 328 328 325 325 320 322 324 330 328 317 321 326 332 325 317 312 308 306 307 319 313 305 288 265 272 274 298 271 223 192 173 175 189 195 188 182 180 164 165 165 165 163 163 170 170 171 167 169 168 167 168 172 170
211 147 66 143 254 178 231 141 127 194 185 209 139 89 81 108 102 125 84 32 339 348 339 330 303 302 281 294 285 282 297 309 313 306 308 311 317 320 323 323 324 332 338 337 327 321 326 326 321 320 318 313 317 320 307 293 275 267 286 285 264 241 212 198 190 191 183 177 171 165 167 166 164 158 159 163 163 165 164 166 168 168 169 172 169 169
278 173 83 186 173 155 234 158 227 234 189 186 129 119 86 58 50 63 104 185 238 265 269 310 325 354 15 338 282 271 285 298 307 310 317 314 312 315 319 323 325 329 329 325 316 324 310 310 309 308 311 307 309 314 306 295 287 288 295 293 276 240 223 221 210 199 193 181 172 171 172 169 158 157 160 168 166 163 163 173 175 173 176 176 175 172
159 62 180 173 168 227 352 155 172 104 36 126 134 102 110 105 72 16 7 30 34 26 10 5 16 351 347 325 323 280 299 306 308 302 306 309 314 317 318 319 318 315 317 326 329 335 326 314 307 299 298 294 298 303 300 293 286 294 286 277 268 219 202 222 221 199 176 167 162 167 166 153 152 155 148 144 135 110 143 170 179 177 165 154 169 181
115 189 197 114 83 207 199 212 144 124 175 165 106 103 65 49 62 52 36 38 28 22 11 1 348 355 1 356 350 340 334 320 325 327 319 315 310 313 316 318 318 317 316 315 320 321 318 312 299 296 292 289 293 292 289 286 288 298 298 271 246 208 196 206 181 168 170 162 157 152 146 138 145 142 143 144 143 127 82 66 109 140 158 160 150 155
166 190 155 167 180 228 194 168 172 135 105 102 120 92 66 41 63 58 47 37 22 25 12 4 349 351 358 2 12 3 346 340 335 333 324 323 321 316 312 312 316 317 315 318 323 321 323 318 315 303 295 290 287 281 279 277 276 291 290 265 239 200 204 190 198 202 193 179 179 173 165 160 159 160 156 157 154 149 141 129 98 131 137 143 148 139